Weather reports worldwide

Advertisment
St-Nazaire, France (7217): temperature & dewpoint: 10.09.2019 05:00:00 - 16.09.2019 05:00:00 (CEST)St-Nazaire, France (7217): temperature 5cm: 10.09.2019 05:00:00 - 16.09.2019 05:00:00 (CEST)St-Nazaire, France (7217): temperature -20cm: 10.09.2019 05:00:00 - 16.09.2019 05:00:00 (CEST)St-Nazaire, France (7217): wind speed & gusts: 10.09.2019 05:00:00 - 16.09.2019 05:00:00 (CEST)St-Nazaire, France (7217): wind direction: 10.09.2019 05:00:00 - 16.09.2019 05:00:00 (CEST)St-Nazaire, France (7217): reduced air pressure: 10.09.2019 05:00:00 - 16.09.2019 05:00:00 (CEST)St-Nazaire, France (7217): visibility: 10.09.2019 05:00:00 - 16.09.2019 05:00:00 (CEST)St-Nazaire, France (7217): precipitation: 10.09.2019 05:00:00 - 16.09.2019 05:00:00 (CEST)
Date & Time tt [°C] td [°C] tt 5cm [°C] tt -20cm [°C] ff [km/h] ff [kn] fx [km/h] fx [kn] dd ppp [hPa] vv [km] rr [mm]
16.09.2019 05:00:00 - - - - - - - - - - - -
16.09.2019 04:00:00 14,5 12,4 13,2 20,8 8 5 19 10 N 1022,3 37 0,0
16.09.2019 03:00:00 15,1 12,2 13,8 20,9 13 7 20 11 N 1022,4 59 0,0
16.09.2019 02:00:00 15,7 11,9 14,1 20,8 9 5 17 9 N 1022,7 60 0,0
16.09.2019 01:00:00 16,8 12,5 15,6 20,8 11 6 23 12 N 1022,7 60 0,0
16.09.2019 00:00:00 18,3 13,4 16,8 20,8 8 4 25 13 NNE 1022,8 60 0,0
15.09.2019 23:00:00 19,9 13,6 18,9 20,7 18 10 31 17 NNE 1022,7 60 0,0
15.09.2019 22:00:00 21,8 14,9 20,7 20,7 17 9 32 17 NNE 1022,4 60 0,0
15.09.2019 21:00:00 23,7 15,5 21,7 20,5 11 6 19 10 N 1021,8 60 0,0
15.09.2019 20:00:00 26,2 15,0 25,5 20,4 11 6 22 12 N 1021,3 60 0,0
15.09.2019 19:00:00 27,9 14,2 28,8 20,2 15 8 24 13 NNE 1021,2 50 0,0
15.09.2019 18:00:00 28,6 14,1 32,8 20,1 15 8 27 15 NNE 1021,4 47 0,0
15.09.2019 17:00:00 29,1 14,5 34,6 20,0 15 8 29 16 NNE 1021,9 20 0,0
15.09.2019 16:00:00 29,1 14,5 34,5 20,0 11 6 26 14 ENE 1022,3 60 0,0
15.09.2019 15:00:00 28,5 15,4 32,2 19,9 11 6 29 15 NE 1023,0 60 0,0
15.09.2019 14:00:00 27,3 16,0 30,4 19,9 16 9 29 16 NE 1023,6 60 0,0
15.09.2019 13:00:00 25,7 16,0 29,4 20,0 16 8 25 14 NE 1024,3 60 0,0
15.09.2019 12:00:00 23,4 15,7 26,6 20,0 14 8 23 12 ENE 1024,9 60 0,0
15.09.2019 11:00:00 21,0 15,3 23,0 20,1 14 8 23 12 NNE 1025,0 44 0,0
15.09.2019 10:00:00 18,5 14,8 19,1 20,1 14 8 24 13 NNE 1024,8 44 0,0
15.09.2019 09:00:00 16,1 14,3 14,5 20,2 11 6 18 10 NNE 1024,5 21 0,0
15.09.2019 08:00:00 15,1 13,8 13,7 20,2 11 6 19 11 NNE 1024,4 18 0,0
15.09.2019 07:00:00 15,4 13,9 14,1 20,3 8 4 17 9 NNE 1024,3 22 0,0
15.09.2019 06:00:00 15,7 14,2 14,5 20,4 9 5 17 9 NNE 1024,0 23 0,0
15.09.2019 05:00:00 16,0 14,5 14,8 20,4 12 7 19 11 N 1024,5 24 0,0
15.09.2019 04:00:00 16,2 14,7 14,4 20,4 10 5 13 7 N 1024,8 23 0,0
15.09.2019 03:00:00 16,5 14,7 13,4 20,4 8 5 12 6 N 1024,9 30 0,0
15.09.2019 02:00:00 17,6 15,2 15,3 20,4 7 4 16 9 N 1025,2 13 0,0
15.09.2019 01:00:00 18,8 15,5 17,6 20,4 13 7 22 12 N 1025,3 50 0,0
15.09.2019 00:00:00 19,5 15,4 18,3 20,3 13 7 22 12 N 1025,6 60 0,0
14.09.2019 23:00:00 21,5 14,4 19,3 20,2 10 5 20 11 NE 1025,6 60 0,0
14.09.2019 22:00:00 22,4 15,3 20,2 20,2 10 5 16 9 NNE 1025,5 60 0,0
14.09.2019 21:00:00 23,3 15,1 20,3 20,0 9 5 16 9 NNE 1025,5 60 0,0
14.09.2019 20:00:00 25,7 15,1 25,1 19,9 11 6 21 11 NNE 1025,1 60 0,0
14.09.2019 19:00:00 27,3 15,0 28,3 19,8 16 8 29 15 NNE 1024,9 55 0,0
14.09.2019 18:00:00 28,1 15,0 31,4 19,7 15 8 28 15 NE 1025,0 59 0,0
14.09.2019 17:00:00 28,4 14,6 33,1 19,6 18 10 34 18 NNE 1025,3 33 0,0
14.09.2019 16:00:00 28,0 15,0 31,9 19,5 17 9 34 19 ENE 1025,9 60 0,0
14.09.2019 15:00:00 28,0 15,3 30,8 19,5 15 8 34 19 ENE 1026,4 56 0,0
14.09.2019 14:00:00 25,7 16,3 29,2 19,5 19 10 32 18 NE 1026,9 47 0,0
14.09.2019 13:00:00 24,6 16,6 26,8 19,5 21 11 35 19 NE 1027,7 49 0,0
14.09.2019 12:00:00 22,6 16,4 25,1 19,6 19 10 31 17 NE 1028,2 52 0,0
14.09.2019 11:00:00 20,5 16,1 21,9 19,6 21 11 31 17 NE 1028,7 54 0,0
14.09.2019 10:00:00 18,2 15,6 18,5 19,6 22 12 36 20 ENE 1029,1 60 0,0
14.09.2019 09:00:00 16,4 14,8 15,3 19,7 17 9 28 15 NE 1029,2 42 0,0
14.09.2019 08:00:00 15,7 14,4 14,7 19,7 15 8 24 13 NE 1028,9 29 0,0
14.09.2019 07:00:00 16,1 14,5 15,2 19,8 15 8 26 14 NE 1028,7 35 0,0
14.09.2019 06:00:00 16,2 14,6 15,3 19,8 13 7 28 15 NE 1028,6 30 0,0
14.09.2019 05:00:00 16,5 14,9 15,6 19,8 13 7 28 15 NE 1029,1 38 0,0
14.09.2019 04:00:00 16,8 15,0 15,9 19,9 15 8 28 15 NNE 1029,3 42 0,0
14.09.2019 03:00:00 17,1 15,3 16,2 19,9 16 9 26 14 NE 1029,7 52 0,0
14.09.2019 02:00:00 17,3 15,5 16,5 19,8 16 8 29 16 NNE 1029,9 60 0,0
14.09.2019 01:00:00 17,5 15,7 - - 16 9 26 14 NNE 1029,8 60 0,0
14.09.2019 00:00:00 17,6 15,6 16,5 19,8 13 7 26 14 NNE 1030,2 60 0,0
13.09.2019 23:00:00 18,4 15,3 17,4 19,8 16 9 28 15 N 1030,2 60 0,0
13.09.2019 22:00:00 18,9 15,0 17,8 19,7 14 8 23 13 N 1030,1 60 0,0
13.09.2019 21:00:00 20,2 15,4 18,4 19,6 10 5 23 12 N 1030,1 60 0,0
13.09.2019 20:00:00 21,9 15,3 22,1 19,5 16 9 31 17 NE 1030,0 57 0,0
13.09.2019 19:00:00 22,5 15,6 24,0 19,3 21 12 41 22 NE 1029,7 50 0,0
13.09.2019 18:00:00 23,6 16,1 27,6 19,2 21 11 40 22 NNE 1029,8 48 0,0
13.09.2019 17:00:00 23,8 16,1 28,7 19,1 23 12 41 22 NNE 1030,2 50 0,0
13.09.2019 16:00:00 24,2 16,2 29,7 19,1 21 11 37 20 NNE 1030,9 60 0,0
13.09.2019 15:00:00 24,1 15,8 27,8 19,0 19 10 36 19 NNE 1031,4 60 0,0
13.09.2019 14:00:00 23,9 15,7 28,7 19,0 21 11 34 18 NE 1031,9 60 0,0
13.09.2019 13:00:00 23,1 16,4 26,6 19,0 19 10 34 18 NE 1032,1 55 0,0
13.09.2019 12:00:00 22,3 16,6 23,8 19,1 18 10 28 15 ENE 1032,4 58 0,0
13.09.2019 11:00:00 20,2 16,6 20,1 19,1 19 10 29 16 ENE 1033,1 60 0,0
13.09.2019 10:00:00 16,9 16,1 16,2 19,2 7 4 16 9 ENE 1033,3 55 0,0
13.09.2019 09:00:00 14,9 14,4 12,8 19,3 9 5 16 8 NNE 1032,8 32 0,0
13.09.2019 08:00:00 13,3 12,8 10,9 19,4 9 5 12 7 N 1032,6 18 0,0
13.09.2019 07:00:00 12,8 12,2 10,7 19,4 5 3 13 7 NNE 1032,0 8 0,0
13.09.2019 06:00:00 12,9 12,4 9,8 19,5 10 5 14 7 N 1031,9 22 0,0
13.09.2019 05:00:00 12,3 11,7 9,6 19,5 6 3 10 5 N 1032,0 1,4 0,0
13.09.2019 04:00:00 12,8 12,2 9,8 19,6 6 3 9 5 N 1032,2 59 0,2
13.09.2019 03:00:00 13,7 13,1 12,3 19,6 6 3 13 7 N 1032,4 9 0,0
13.09.2019 02:00:00 15,2 14,4 14,4 19,6 10 5 17 9 NNW 1032,3 38 0,0
13.09.2019 01:00:00 15,7 14,9 14,9 19,6 7 4 16 9 NW 1032,4 50 0,0
13.09.2019 00:00:00 16,1 15,1 15,3 19,6 9 5 20 11 WNW 1032,7 24 0,0
12.09.2019 23:00:00 16,3 15,2 15,6 19,6 12 6 19 10 WNW 1032,7 42 0,0
12.09.2019 22:00:00 16,9 15,1 16,0 19,6 11 6 19 11 WNW 1032,6 60 0,0
12.09.2019 21:00:00 17,8 15,1 16,9 19,5 11 6 20 11 WNW 1032,2 60 0,0
12.09.2019 20:00:00 19,7 15,1 20,3 19,4 12 7 27 15 WNW 1031,9 60 0,0
12.09.2019 19:00:00 21,2 15,9 22,8 19,4 17 9 26 14 WNW 1031,9 60 0,0
12.09.2019 18:00:00 21,5 15,8 21,8 19,3 12 6 22 12 WNW 1032,2 60 0,0
12.09.2019 17:00:00 21,1 16,3 21,8 19,2 15 8 36 19 WNW 1032,2 60 0,0
12.09.2019 16:00:00 19,8 17,0 21,8 19,2 16 9 29 16 S 1032,5 60 0,0
12.09.2019 15:00:00 20,2 17,4 22,4 19,1 19 10 28 15 S 1032,8 60 0,0
12.09.2019 14:00:00 19,7 17,5 20,9 19,1 17 9 24 13 SSW 1033,1 55 0,0
12.09.2019 13:00:00 19,0 16,6 20,8 19,1 17 9 23 12 S 1033,1 60 0,0
12.09.2019 12:00:00 20,4 16,4 21,5 19,1 7 4 16 9 W 1033,1 60 0,0
12.09.2019 11:00:00 18,6 16,7 18,7 19,1 7 4 19 10 W 1032,8 60 0,0
12.09.2019 10:00:00 17,5 16,5 17,6 19,1 8 4 15 8 WNW 1032,1 13 0,0
12.09.2019 09:00:00 17,0 16,4 16,4 19,2 7 4 9 5 WSW 1031,6 40 0,0
12.09.2019 08:00:00 16,4 15,8 15,6 19,2 6 4 10 5 SSW 1031,2 19 0,0
12.09.2019 07:00:00 16,4 15,8 15,4 19,2 9 5 13 7 SW 1030,6 14 0,0
12.09.2019 06:00:00 16,2 15,4 15,2 19,2 6 3 9 5 SSW 1030,4 19 0,0
12.09.2019 05:00:00 16,5 15,5 16,2 19,2 10 5 19 11 W 1030,6 8 0,0
12.09.2019 04:00:00 16,8 16,0 16,5 19,2 7 4 14 8 W 1030,6 6 0,2
12.09.2019 03:00:00 16,9 15,8 16,5 19,2 8 5 21 12 WSW 1030,7 14 0,0
12.09.2019 02:00:00 17,4 15,6 17,2 19,2 12 7 19 10 W 1030,5 32 0,0
12.09.2019 01:00:00 17,3 15,5 17,1 19,2 9 5 16 9 W 1030,1 38 0,0
12.09.2019 00:00:00 17,2 15,2 17,2 19,1 11 6 16 8 W 1029,9 38 0,0
11.09.2019 23:00:00 17,3 15,3 16,7 19,1 8 4 19 10 W 1029,7 38 0,0
11.09.2019 22:00:00 17,1 14,9 16,5 19,0 9 5 16 9 W 1029,5 41 0,0
11.09.2019 21:00:00 17,1 14,6 16,5 19,0 9 5 21 11 W 1029,1 47 0,0
11.09.2019 20:00:00 17,5 14,8 17,6 18,9 13 7 32 17 WNW 1028,8 60 0,0
11.09.2019 19:00:00 17,9 14,4 18,4 18,8 21 11 35 19 W 1028,6 60 0,0
11.09.2019 18:00:00 18,7 14,4 20,1 18,7 19 10 39 21 WNW 1028,3 51 0,0
11.09.2019 17:00:00 18,9 14,0 20,6 18,6 20 11 34 18 W 1028,3 49 0,0
11.09.2019 16:00:00 19,9 13,8 22,9 18,5 19 10 34 19 WNW 1028,1 20 0,0
11.09.2019 15:00:00 19,9 12,2 24,3 18,4 15 8 33 18 WNW 1028,4 20 0,0
11.09.2019 14:00:00 19,6 10,6 24,1 18,5 16 9 28 15 W 1028,1 60 0,0
11.09.2019 13:00:00 18,5 11,6 19,5 18,6 12 7 24 13 W 1028,0 60 0,0
11.09.2019 12:00:00 17,1 11,1 16,9 18,6 12 6 20 11 W 1028,4 48 0,0
11.09.2019 11:00:00 14,9 11,1 16,3 18,7 9 5 16 9 WNW 1028,2 45 0,0
11.09.2019 10:00:00 13,4 12,5 12,6 18,8 7 4 11 6 NW 1027,6 19 0,0
11.09.2019 09:00:00 12,0 11,2 9,7 18,8 8 5 16 9 NW 1026,9 15 0,0
11.09.2019 08:00:00 11,0 10,2 10,3 18,9 4 2 17 9 W 1026,0 13 0,0
11.09.2019 07:00:00 11,2 10,4 10,4 19,0 9 5 22 12 WNW 1025,6 15 0,0
11.09.2019 06:00:00 11,1 10,3 8,8 19,1 10 6 18 10 WNW 1025,2 9 0,0
11.09.2019 05:00:00 11,2 10,3 10,3 19,1 5 3 20 11 NW 1024,8 11 0,0
11.09.2019 04:00:00 11,5 10,6 10,3 19,2 13 7 20 11 WNW 1024,9 14 0,0
11.09.2019 03:00:00 11,9 10,6 9,4 19,2 5 3 14 8 NW 1024,9 17 0,0
11.09.2019 02:00:00 12,3 10,5 9,7 19,2 4 2 14 8 NNW 1025,0 31 0,0
11.09.2019 01:00:00 13,1 10,8 10,9 19,2 6 3 14 8 NNW 1024,6 56 0,0
11.09.2019 00:00:00 13,5 10,5 11,7 19,2 8 5 14 8 N 1024,5 60 0,0
10.09.2019 23:00:00 15,0 10,8 13,3 19,2 10 6 19 10 N 1024,0 47 0,0
10.09.2019 22:00:00 16,2 10,7 14,4 19,1 12 6 19 11 N 1023,1 60 0,0
10.09.2019 21:00:00 17,9 10,3 15,4 19,1 6 4 16 9 NNW 1022,1 60 0,0
10.09.2019 20:00:00 19,8 10,5 20,4 18,9 10 5 22 12 N 1021,5 60 0,0
10.09.2019 19:00:00 20,9 10,4 22,6 18,9 13 7 30 16 N 1020,8 60 0,0
10.09.2019 18:00:00 21,0 8,9 21,6 18,8 16 9 29 16 N 1020,4 32 0,0
10.09.2019 17:00:00 21,8 9,7 22,7 18,7 16 9 32 18 N 1020,1 60 0,0
10.09.2019 16:00:00 22,2 10,0 26,6 18,6 15 8 32 18 NE 1019,9 53 0,0
10.09.2019 15:00:00 21,0 9,9 23,0 18,6 17 9 36 19 NNE 1019,9 54 0,0
10.09.2019 14:00:00 20,3 9,8 25,1 18,6 20 11 32 17 NE 1019,9 60 0,0
10.09.2019 13:00:00 19,0 11,8 23,2 18,6 16 9 31 17 N 1019,6 58 0,0
10.09.2019 12:00:00 17,4 12,3 21,0 18,6 16 9 29 16 N 1018,9 42 0,0
10.09.2019 11:00:00 15,6 12,5 17,1 18,7 16 8 28 15 N 1018,1 43 0,0
10.09.2019 10:00:00 13,5 12,4 13,7 18,7 14 8 24 13 N 1016,9 18 0,0
10.09.2019 09:00:00 11,8 11,2 11,2 18,8 5 3 15 8 NE 1015,8 10 0,0
10.09.2019 08:00:00 11,7 11,1 11,1 18,8 10 5 18 10 N 1015,1 10 0,0
10.09.2019 07:00:00 12,2 11,6 11,7 18,9 8 4 22 12 N 1014,0 10 0,0
10.09.2019 06:00:00 12,9 12,3 12,7 18,9 17 9 25 14 N 1013,2 10 0,0
10.09.2019 05:00:00 13,0 12,4 12,4 19,0 11 6 19 10 N 1012,9 7 0,0

tt = temperature
td = dewpoint
tt 5cm = temperature 5cm
tt -20cm = temperature -20cm
ff = wind speed
fx = gusts
dd = wind direction
ppp = reduced air pressure
vv = visibility
rr = precipitation

Next stations